Wind_Speed
26 26 26 25 25 25 26 25 25 25 25 25 26 25 24 23 23 23 22 22 23 23 23 23 22 22 22 23 23 23 22 23 23 24 24 25 26 27 26 26 26 26 25 25
27 26 26 26 25 25 26 26 26 26 25 25 26 25 25 25 25 24 24 24 24 25 25 25 25 25 25 25 24 24 24 24 24 25 25 26 27 28 28 28 28 28 27 27
27 27 27 28 26 26 27 26 26 26 26 26 26 25 26 26 25 25 25 25 25 26 26 26 26 25 25 26 26 25 25 25 25 26 26 26 27 28 29 29 29 30 29 29
27 27 28 27 25 26 27 26 26 27 27 27 27 26 27 27 26 26 26 26 26 26 26 27 26 26 26 26 27 27 26 26 26 27 28 28 28 29 29 30 30 30 30 30
28 28 28 28 27 26 26 25 25 26 26 27 27 27 28 28 27 27 26 26 26 26 27 27 27 27 27 28 28 28 28 27 27 28 29 30 30 30 31 31 31 31 31 31
29 28 27 27 27 26 26 26 26 26 26 26 26 27 27 27 27 27 27 28 27 27 28 28 28 29 29 29 29 29 29 29 28 29 30 31 31 32 32 32 32 32 31 31
29 29 28 28 27 26 26 26 26 26 26 26 27 27 27 28 28 28 28 29 28 29 29 29 29 30 30 30 30 29 29 29 29 29 30 30 30 31 32 32 32 32 31 31
29 29 29 29 28 28 27 26 26 26 27 27 27 28 28 28 28 29 29 29 29 29 29 29 29 30 30 30 30 30 29 29 29 28 28 28 29 29 29 30 31 32 32 32
30 30 30 30 29 29 28 27 27 27 28 28 27 28 28 28 28 29 29 29 29 29 29 29 29 29 30 30 31 30 30 30 29 28 28 28 28 28 28 29 30 30 31 33
29 29 29 30 29 29 28 27 27 27 27 27 27 27 27 27 28 28 27 28 28 28 29 29 29 29 30 30 30 29 30 30 30 29 29 28 29 29 29 30 30 31 31 30
29 29 28 28 28 27 27 27 27 27 26 26 27 27 27 27 27 28 28 28 28 28 28 29 29 28 28 29 30 30 30 30 30 30 30 30 29 29 28 28 29 30 30 30
27 27 27 27 28 27 27 27 26 27 27 26 27 27 28 27 27 27 27 27 27 27 27 27 28 28 28 29 29 30 30 30 31 31 31 31 31 31 30 30 29 29 30 30
27 27 27 27 27 27 27 26 26 26 26 26 26 26 27 27 27 27 27 27 27 27 26 27 27 27 28 29 30 30 30 31 31 31 32 32 32 31 30 30 29 30 29 29
27 27 27 28 27 27 27 27 26 26 26 25 26 26 27 27 27 27 26 25 25 26 26 26 27 27 28 29 29 30 31 31 30 31 31 32 32 31 30 30 29 29 29 28
27 27 28 28 27 27 26 27 26 25 25 26 26 27 27 27 26 25 25 25 26 26 26 27 27 28 28 29 29 30 31 31 31 31 31 31 31 31 31 30 30 29 29 28
27 27 28 28 27 27 27 26 26 26 25 25 25 26 26 26 25 25 25 26 25 26 26 26 28 28 29 29 30 30 31 31 31 31 30 30 30 30 30 29 29 29 28 28
27 27 27 27 27 27 26 26 25 25 25 25 26 26 26 26 26 25 25 26 26 26 27 27 28 29 29 30 30 30 30 29 29 29 29 29 30 30 29 28 28 28 28 28
25 25 26 25 26 26 26 26 26 26 26 26 26 26 26 26 26 26 26 26 27 27 28 28 29 29 29 29 29 29 29 28 29 29 29 29 29 29 28 28 28 28 28 27
23 23 23 24 24 24 25 25 25 26 26 26 26 26 25 25 26 26 26 26 26 27 27 28 28 28 29 29 28 28 29 29 29 29 28 28 28 28 28 28 28 28 27 27
21 22 22 22 23 23 24 24 25 25 25 25 25 25 25 25 26 26 26 26 26 26 27 27 27 27 27 28 28 28 28 28 28 28 27 27 27 27 27 27 27 27 26 26
19 19 21 21 21 22 22 23 23 23 23 24 24 24 24 25 25 25 25 25 25 25 25 25 26 26 26 27 27 27 27 27 27 26 26 26 26 26 26 26 25 25 25 24
18 18 19 19 20 19 20 20 20 21 22 22 23 23 23 23 23 23 23 23 24 24 24 23 24 24 25 25 25 26 25 25 26 25 25 25 25 24 24 23 23 23 23 23
18 18 18 18 18 18 18 19 19 19 20 21 21 21 22 22 22 22 23 23 23 23 23 23 23 23 23 24 24 23 23 23 23 23 23 23 23 23 22 22 22 23 22 22
17 17 18 18 18 19 18 18 19 19 19 19 20 20 20 20 20 21 21 21 21 21 22 22 21 22 22 22 21 20 20 20 20 20 21 21 21 22 21 21 21 21 22 22
16 16 17 17 18 18 18 18 18 18 18 18 18 18 18 18 19 19 19 19 20 20 20 20 19 19 19 19 18 18 18 18 19 19 19 20 20 21 21 21 21 21 21 21
15 15 15 15 15 16 17 17 17 17 17 18 18 17 17 18 18 17 18 18 18 18 18 18 18 17 17 17 17 18 18 18 18 19 19 19 20 20 21 20 20 21 21 21
14 14 14 14 14 15 15 16 16 17 17 17 16 16 17 17 17 17 16 16 17 17 17 16 16 16 16 16 16 17 17 17 18 18 18 18 18 19 19 19 19 20 21 21
Wind_Direction
258 259 262 265 266 266 264 265 266 269 270 271 270 270 271 272 273 271 273 272 270 269 270 272 274 275 276 278 279 279 278 277 276 273 272 271 270 268 266 267 267 268 270 272
260 261 263 263 263 264 264 265 267 268 270 270 270 269 269 271 271 271 272 270 270 269 269 270 272 275 277 277 277 278 279 278 277 275 273 273 271 269 269 268 267 268 269 271
261 262 264 263 263 263 264 265 267 267 269 270 270 270 271 271 271 271 271 270 270 268 268 269 271 274 276 277 277 279 279 278 276 275 275 275 273 272 271 269 269 269 270 272
260 261 261 265 266 265 266 266 266 266 268 270 271 270 270 270 271 271 271 270 269 267 268 269 269 271 275 276 276 278 280 280 278 277 276 276 275 274 271 269 270 271 271 271
259 262 264 264 265 265 267 267 266 266 268 269 269 269 269 270 270 270 269 268 268 269 269 269 270 271 272 274 276 276 277 279 280 278 278 277 276 274 272 270 270 271 271 272
259 260 263 266 265 266 266 266 266 267 268 268 267 268 269 270 269 269 269 269 269 270 270 270 269 270 271 272 273 275 277 278 280 279 278 278 276 274 272 271 270 270 271 272
258 260 261 262 266 267 265 266 266 265 266 267 267 268 270 271 270 270 271 272 273 273 271 270 270 269 269 271 272 274 277 278 280 280 279 278 276 276 274 271 270 269 271 271
255 258 260 263 265 266 267 267 267 266 267 268 269 270 271 271 270 270 271 272 273 274 272 271 271 270 269 271 272 274 275 276 278 279 279 279 278 276 275 272 272 272 271 271
254 258 261 264 266 266 265 266 266 266 268 268 269 270 271 272 272 272 271 273 274 275 274 273 273 272 271 271 274 275 276 277 279 280 279 278 278 277 274 272 271 272 271 270
256 259 261 264 266 264 264 265 267 267 268 269 269 269 270 271 272 272 271 273 274 275 275 274 274 273 273 273 274 277 279 279 280 280 279 278 279 278 277 274 273 272 272 272
257 258 260 262 263 263 264 266 267 266 266 266 267 268 268 270 270 270 271 272 273 275 275 275 275 273 273 274 276 278 279 278 278 277 278 278 279 279 278 275 274 275 275 275
255 258 259 260 260 262 263 265 267 269 269 267 266 267 268 269 270 273 273 274 275 276 276 276 275 274 274 276 276 277 277 277 277 277 278 278 278 277 278 279 279 278 279 278
255 256 258 259 261 263 263 265 267 269 270 269 269 268 268 269 272 274 274 274 275 276 276 277 278 275 275 276 276 276 277 276 277 277 278 279 279 279 279 281 281 279 280 279
252 254 257 259 261 263 264 265 267 268 269 270 270 269 271 272 272 272 272 273 275 276 276 277 277 277 276 276 277 278 278 279 278 278 278 279 279 279 281 282 281 280 280 280
253 255 256 258 261 263 264 265 267 267 269 271 272 272 273 273 271 271 274 275 276 277 277 277 278 278 278 278 278 279 279 280 280 280 279 279 279 279 279 280 280 279 280 279
252 254 255 257 260 262 264 265 266 268 270 272 272 273 274 274 274 275 275 276 276 277 278 279 280 281 280 280 281 280 279 279 279 280 281 281 280 279 279 279 281 279 279 279
251 252 254 256 257 259 261 262 264 267 269 270 271 273 274 274 274 277 277 275 276 278 279 280 280 280 280 279 279 279 279 279 279 280 281 281 281 280 279 280 282 281 281 282
253 254 256 257 257 258 260 262 263 267 269 270 271 272 274 274 274 277 277 277 277 278 280 281 281 280 279 279 278 277 277 278 278 279 281 281 280 280 279 280 281 282 282 282
254 254 255 258 259 259 261 263 264 267 269 270 270 272 274 276 276 276 277 276 277 278 280 281 281 281 280 279 278 278 278 278 278 279 279 280 280 279 279 278 279 280 281 282
254 256 256 257 258 260 262 263 265 267 268 270 271 273 274 275 276 276 276 276 276 278 279 280 280 280 279 278 278 278 278 277 278 278 279 280 280 280 278 278 278 278 280 282
259 260 258 259 259 261 263 264 266 267 268 269 271 272 273 275 277 279 280 279 279 278 279 280 280 281 280 279 279 279 279 278 277 277 277 278 279 279 279 279 279 281 283 284
261 262 263 262 263 264 264 266 267 269 270 271 272 273 274 275 276 278 280 281 282 281 279 280 281 282 281 281 280 279 278 277 276 276 276 278 279 280 280 280 280 280 282 285
262 263 263 263 263 264 267 269 270 272 274 276 275 275 274 274 276 278 279 280 281 281 281 281 281 282 282 282 280 279 279 278 278 277 278 280 281 281 281 280 281 281 282 284
259 262 263 265 266 267 268 270 272 275 277 279 278 278 277 276 276 277 279 280 281 283 284 282 281 281 282 283 281 280 281 281 280 278 279 281 280 280 280 280 281 282 283 285
262 265 266 266 268 269 272 273 273 274 276 278 279 281 280 279 279 280 282 283 282 283 284 284 284 285 285 285 285 284 283 283 282 281 280 280 281 281 281 281 283 285 287 288
263 265 267 269 269 271 273 273 274 275 276 277 278 279 279 282 283 283 285 284 285 288 289 289 290 287 285 285 285 285 285 285 284 283 281 280 281 283 283 286 286 287 288 288
264 263 264 265 268 272 276 278 279 278 278 277 278 279 279 281 284 287 289 289 289 291 291 291 289 288 288 286 286 287 287 287 287 287 286 285 285 286 287 288 288 289 289 289
Height
5871 5871 5872 5872 5873 5873 5873 5874 5875 5876 5875 5875 5874 5874 5873 5873 5872 5872 5872 5871 5871 5870 5870 5869 5868 5868 5867 5866 5865 5864 5863 5863 5862 5861 5860 5859 5859 5858 5858 5858 5858 5858 5857 5857
5863 5863 5864 5864 5865 5865 5866 5866 5867 5867 5867 5867 5866 5866 5866 5865 5865 5865 5865 5864 5864 5863 5863 5862 5862 5861 5860 5859 5858 5857 5857 5856 5855 5854 5853 5852 5852 5851 5851 5851 5851 5850 5850 5849
5855 5856 5855 5856 5858 5858 5858 5858 5859 5859 5860 5859 5858 5858 5858 5857 5857 5857 5857 5857 5856 5856 5855 5855 5855 5854 5853 5852 5851 5850 5849 5848 5847 5847 5846 5845 5844 5843 5843 5843 5843 5842 5842 5842
5847 5848 5848 5851 5850 5850 5850 5850 5851 5851 5851 5851 5850 5850 5849 5849 5849 5849 5849 5849 5848 5848 5847 5847 5847 5846 5846 5845 5844 5843 5842 5841 5839 5838 5837 5836 5835 5835 5834 5834 5834 5834 5834 5833
5839 5839 5840 5842 5842 5842 5842 5843 5842 5842 5842 5842 5842 5842 5841 5841 5841 5841 5841 5840 5840 5840 5840 5839 5839 5838 5838 5837 5836 5835 5834 5833 5831 5830 5829 5828 5826 5826 5825 5824 5824 5824 5825 5824
5830 5831 5833 5834 5833 5833 5835 5834 5834 5834 5834 5834 5834 5834 5834 5833 5833 5832 5832 5832 5831 5831 5831 5831 5830 5830 5830 5829 5828 5827 5826 5824 5823 5821 5820 5818 5817 5816 5815 5815 5815 5815 5815 5815
5821 5822 5824 5824 5824 5826 5827 5827 5826 5826 5826 5826 5825 5826 5826 5825 5824 5824 5824 5824 5823 5823 5823 5822 5822 5821 5821 5820 5819 5818 5817 5815 5814 5812 5811 5809 5808 5807 5806 5806 5806 5806 5806 5806
5813 5814 5817 5815 5816 5817 5818 5817 5818 5818 5818 5817 5817 5817 5817 5816 5816 5816 5815 5815 5815 5814 5814 5813 5813 5813 5812 5812 5810 5809 5808 5807 5805 5804 5802 5801 5800 5799 5798 5797 5797 5797 5797 5797
5805 5807 5807 5807 5807 5807 5808 5809 5809 5810 5810 5809 5809 5809 5808 5808 5807 5807 5807 5807 5806 5806 5805 5804 5804 5804 5803 5803 5801 5800 5799 5798 5797 5795 5794 5793 5791 5790 5790 5789 5788 5788 5787 5786
5796 5797 5797 5798 5798 5798 5799 5800 5801 5801 5801 5801 5801 5801 5800 5800 5800 5799 5799 5798 5797 5797 5796 5795 5795 5794 5794 5793 5792 5791 5790 5789 5788 5787 5786 5785 5784 5782 5781 5781 5780 5779 5779 5777
5787 5788 5789 5789 5789 5790 5791 5791 5792 5792 5792 5793 5793 5793 5792 5792 5791 5791 5790 5790 5789 5788 5787 5786 5786 5785 5784 5784 5783 5782 5781 5780 5779 5778 5777 5776 5775 5774 5772 5772 5771 5770 5770 5769
5779 5780 5780 5781 5782 5782 5783 5783 5784 5784 5784 5784 5784 5784 5784 5783 5783 5782 5782 5781 5781 5780 5779 5778 5777 5776 5775 5774 5774 5773 5772 5771 5770 5769 5768 5767 5766 5765 5764 5763 5762 5761 5760 5759
5770 5771 5772 5773 5774 5774 5775 5775 5775 5776 5776 5776 5776 5775 5775 5775 5774 5774 5773 5773 5772 5772 5771 5770 5769 5767 5766 5765 5764 5764 5763 5762 5761 5759 5758 5757 5757 5756 5755 5754 5753 5752 5751 5750
5761 5762 5764 5765 5766 5766 5767 5768 5768 5768 5768 5768 5768 5768 5767 5767 5767 5766 5766 5765 5764 5764 5763 5762 5761 5759 5758 5757 5756 5755 5754 5752 5752 5751 5749 5749 5747 5746 5745 5745 5744 5743 5742 5741
5753 5754 5756 5757 5758 5759 5759 5760 5760 5761 5761 5761 5760 5760 5760 5759 5759 5758 5758 5757 5757 5756 5755 5754 5752 5751 5749 5748 5747 5746 5745 5744 5743 5742 5741 5740 5738 5737 5736 5735 5734 5734 5733 5732
5745 5746 5747 5748 5750 5751 5751 5752 5753 5753 5753 5753 5753 5752 5752 5752 5751 5751 5750 5750 5749 5748 5747 5745 5744 5742 5741 5739 5738 5737 5736 5735 5734 5733 5732 5731 5730 5728 5727 5726 5725 5724 5724 5723
5736 5738 5739 5740 5742 5742 5743 5744 5745 5745 5745 5745 5745 5745 5744 5744 5743 5743 5742 5742 5741 5740 5739 5737 5735 5734 5732 5731 5730 5728 5727 5727 5726 5725 5724 5722 5721 5720 5719 5718 5717 5716 5715 5714
5728 5730 5731 5732 5733 5734 5735 5736 5737 5737 5738 5738 5737 5737 5737 5736 5735 5735 5734 5733 5733 5732 5730 5728 5727 5725 5723 5722 5721 5720 5719 5718 5717 5716 5715 5714 5712 5711 5710 5709 5708 5708 5707 5705
5721 5723 5724 5725 5726 5727 5728 5728 5729 5729 5729 5729 5729 5729 5729 5728 5727 5727 5726 5725 5724 5723 5722 5720 5718 5716 5715 5713 5712 5711 5710 5709 5708 5707 5706 5705 5704 5703 5702 5701 5700 5699 5698 5697
5715 5716 5717 5718 5719 5719 5720 5721 5721 5721 5721 5721 5721 5721 5721 5720 5719 5718 5717 5716 5715 5714 5713 5711 5709 5708 5706 5705 5704 5703 5702 5701 5700 5699 5698 5697 5696 5695 5694 5693 5692 5691 5690 5689
5710 5710 5710 5711 5711 5712 5713 5713 5713 5713 5713 5713 5713 5713 5713 5712 5711 5710 5709 5708 5707 5705 5704 5703 5701 5700 5698 5697 5696 5695 5694 5692 5691 5691 5690 5689 5688 5686 5685 5685 5684 5683 5682 5681
5704 5704 5704 5705 5705 5705 5706 5706 5706 5706 5706 5706 5706 5705 5705 5704 5703 5702 5701 5700 5699 5697 5696 5694 5693 5692 5690 5689 5688 5687 5685 5685 5684 5683 5682 5681 5680 5679 5678 5677 5676 5675 5674 5673
5698 5698 5699 5699 5699 5699 5699 5700 5700 5699 5699 5699 5698 5698 5697 5696 5696 5695 5694 5693 5691 5690 5688 5687 5686 5684 5683 5681 5680 5679 5678 5677 5676 5675 5674 5674 5673 5672 5671 5669 5668 5667 5666 5665
5692 5692 5693 5693 5693 5694 5694 5694 5693 5693 5693 5692 5691 5690 5690 5689 5688 5687 5686 5685 5684 5683 5681 5680 5678 5677 5676 5674 5673 5672 5671 5670 5669 5668 5668 5667 5666 5665 5664 5662 5661 5660 5659 5658
5686 5687 5687 5687 5688 5688 5688 5688 5688 5687 5687 5686 5685 5684 5683 5682 5681 5680 5679 5678 5677 5675 5674 5672 5671 5670 5669 5668 5667 5666 5665 5664 5663 5662 5661 5660 5659 5658 5657 5655 5654 5653 5652 5651
5681 5681 5682 5682 5682 5682 5682 5682 5682 5681 5681 5680 5679 5678 5677 5676 5674 5673 5672 5671 5670 5669 5667 5666 5665 5663 5662 5661 5660 5660 5659 5658 5657 5655 5655 5654 5653 5651 5650 5648 5647 5646 5645 5644
5676 5676 5677 5677 5677 5677 5677 5676 5676 5675 5674 5673 5673 5672 5671 5670 5668 5667 5666 5665 5664 5663 5662 5661 5659 5658 5657 5656 5655 5654 5653 5652 5650 5649 5648 5647 5646 5645 5644 5643 5641 5640 5639 5637